Weather past 2 weeks in Cayenne, French Guiana

Now
75 °F

Mild.


Feels Like: 74 °F
Forecast: 78 / 88 °F
Wind: No wind

Location: Cayenne / Rochambeau

Current Time: Oct 22, 2014 at 1:11:28 AM

Latest Report: Oct 22, 2014 at 12:30 AM


Visibility: N/A

Pressure: 29.89 "Hg

Humidity: 94%

Dew point: 73 °F

Location of CayenneLocation

Historic Weather in Cayenne — Graph

°F

Cayenne temperature yesterday

Maximum temperature yesterday: 93 °F (at 12:30 PM)
Minimum temperature yesterday: 73 °F (at 3:00 AM)
Average temperature yesterday: 80 °F

Past Weeks' High & Low Weather Summary

 TemperatureHumidityPressure
High93 °F (Oct 21, 12:30 PM)100% (Oct 8, 5:30 AM)30.01 "Hg (Oct 8, 5:30 AM)
Low70 °F (Oct 18, 6:00 AM)46% (Oct 8, 3:30 PM)29.74 "Hg (Oct 9, 5:00 PM)
Average81 °F79%29.88 "Hg
* Reported Oct 6 11:00 PM — Oct 21 11:30 PM, Cayenne, Weather by CustomWeather, © 2014

Note: Actual official high and low records may vary slightly from our data, if they occured in-between our weather recording intervals... More about our weather records

Advertising

Cayenne weather history for previous 24 hours

 ConditionsComfort  
Time TempWeatherWind HumidityBarometerVisibility
11:30 PM
Oct 21
75 °FClear.2 mph94%29.92 "HgN/A
11:00 PM77 °FWarm.No wind89%29.92 "HgN/A
10:30 PM77 °FClear.1 mph89%29.92 "HgN/A
10:00 PM77 °FClear.1 mph89%29.92 "HgN/A
9:30 PM77 °FClear.1 mph89%29.92 "HgN/A
9:00 PM77 °FWarm.1 mph89%29.89 "HgN/A
8:30 PM77 °FWarm.1 mph89%29.89 "HgN/A
8:00 PM79 °FPassing clouds.2 mph84%29.86 "HgN/A
7:30 PM79 °FPassing clouds.2 mph89%29.86 "HgN/A
7:00 PM79 °FPassing clouds.3 mph89%29.83 "HgN/A
6:30 PM81 °FWarm.2 mph84%29.83 "HgN/A
6:00 PM81 °FWarm.7 mph84%29.80 "HgN/A
5:30 PM81 °FWarm.8 mph84%29.80 "HgN/A
5:00 PM81 °FBroken clouds.8 mph84%29.80 "HgN/A
4:30 PM81 °FLight rain. Partly sunny.12 mph84%29.80 "HgN/A
4:00 PM86 °FPartly sunny.12 mph70%29.80 "HgN/A
3:30 PM81 °FLight rain. Partly sunny.10 mph79%29.80 "HgN/A
3:00 PM82 °FThundershowers. Broken clouds.7 mph79%29.80 "HgN/A
2:30 PM90 °FBroken clouds.10 mph59%29.80 "HgN/A
2:00 PM88 °FBroken clouds.7 mph66%29.80 "HgN/A
1:30 PM90 °FBroken clouds.8 mph63%29.83 "HgN/A
1:00 PM91 °FPassing clouds.3 mph56%29.83 "HgN/A
12:30 PM93 °FPassing clouds.7 mph47%29.83 "HgN/A
12:00 PM90 °FPassing clouds.3 mph55%29.86 "HgN/A
11:30 AM90 °FClear.3 mph59%29.86 "HgN/A
11:00 AM90 °FHot.5 mph59%29.89 "HgN/A
10:30 AM88 °FClear.6 mph66%29.89 "HgN/A
10:00 AM86 °FScattered clouds.6 mph70%29.92 "HgN/A
9:30 AM84 °FScattered clouds.3 mph79%29.92 "HgN/A
9:00 AM81 °FBroken clouds.3 mph89%29.89 "HgN/A
8:30 AM79 °FLow clouds.5 mph94%29.89 "HgN/A
8:00 AM77 °FLow clouds.3 mph94%29.89 "HgN/A
7:30 AM75 °FFog.1 mph94%29.86 "HgN/A
7:00 AM75 °FFog.No wind94%29.86 "Hg0 mi
6:30 AM73 °FFog.No wind94%29.83 "Hg1 mi
6:00 AM73 °FMostly cloudy.No wind94%29.83 "HgN/A
5:30 AM73 °FPassing clouds.No wind94%29.83 "HgN/A
5:00 AM75 °FPartly cloudy.No wind94%29.83 "HgN/A
4:30 AM73 °FLow clouds.No wind94%29.83 "HgN/A
4:00 AM73 °FLow clouds.No wind94%29.80 "HgN/A
3:30 AM73 °FPassing clouds.No wind94%29.80 "HgN/A
3:00 AM73 °FPassing clouds.1 mph94%29.80 "HgN/A
2:30 AM75 °FPassing clouds.1 mph94%29.80 "HgN/A
2:00 AM75 °FPassing clouds.No wind94%29.83 "HgN/A
1:30 AM75 °FMild.No wind94%29.83 "HgN/A
1:00 AM77 °FClear.No wind89%29.83 "HgN/A
Weather by CustomWeather, © 2014

See weather overviewHow to use our weather pages